EW7512 Athens GR current weather conditions

sailwx.info

Wind from 039 at 6 knots gusting 15

Air temperature 29.4° C
Dewpoint 11.9° C

Last reported at 2020-Aug-11 13:01 UTC.
Time now 2020-Aug-11 13:20 UTC

Location: N 38°09' E 023°52'.
View on Google Maps.

See reports from other nearby stations

  
Tides and Currents Weather Stations Pressure Air Temp Water Temp Dewpoint Dewpoint Depression Visibility Wind Speed Wind Dir Waves Ship Positions
date/time (UTC)wind fromknots sea level pressurealtimeterstation pressurevisibilityair tempwater tempwave heightnotes
2020-Aug-11 13:01 039 6 gusting 15 29.4
2020-Aug-11 12:46 355 5 gusting 11 29.4
2020-Aug-11 12:31 015 6 gusting 15 29.4
2020-Aug-11 12:16 024 6 gusting 15 29.4
2020-Aug-11 12:01 050 7 gusting 16 29.4
2020-Aug-11 11:46 077 9 gusting 17 29.4
2020-Aug-11 11:31 078 4 gusting 12 29.4
2020-Aug-11 11:16 329 5 gusting 12 29.4
2020-Aug-11 11:02 035 5 gusting 13 29.4
2020-Aug-11 10:45 039 5 gusting 13 29.4
2020-Aug-11 10:30 311 5 gusting 15 29.4
2020-Aug-11 10:16 040 6 gusting 14 30.0
2020-Aug-11 10:00 067 3 gusting 12 30.0
2020-Aug-11 09:46 019 5 gusting 13 29.4
2020-Aug-11 09:30 029 6 gusting 13 29.4
2020-Aug-11 09:15 046 5 gusting 18 29.4
2020-Aug-11 09:00 057 6 gusting 13 29.4
2020-Aug-11 08:45 005 1 gusting 11 29.4
2020-Aug-11 08:30 048 5 gusting 10 29.4
2020-Aug-11 08:16 041 4 gusting 7 29.4
2020-Aug-11 08:01 038 2 gusting 11 28.9
2020-Aug-11 07:46 342 4 gusting 8 28.3
2020-Aug-11 07:31 019 1 gusting 7 28.3
2020-Aug-11 07:15 025 4 gusting 8 27.8
2020-Aug-11 07:01 012 2 gusting 7 27.8
2020-Aug-11 06:45 333 4 gusting 11 27.2
2020-Aug-11 06:16 013 2 gusting 10 26.1
2020-Aug-11 06:01 005 4 gusting 9 25.6
2020-Aug-11 05:46 009 3 gusting 8 25.0
2020-Aug-11 05:32 355 3 gusting 7 24.4
2020-Aug-11 05:16 015 1 gusting 6 23.9
2020-Aug-11 05:01 074 0 gusting 2 23.3
2020-Aug-11 04:45 005 22.2
2020-Aug-11 04:31 034 0 gusting 3 21.7
2020-Aug-11 04:15 037 0 gusting 2 21.1
2020-Aug-11 04:00 312 20.6
2020-Aug-11 03:45 005 20.6
2020-Aug-11 03:30 019 0 gusting 2 20.6
2020-Aug-11 03:15 333 0 gusting 3 21.1
2020-Aug-11 03:00 344 21.1
2020-Aug-11 02:45 014 21.7
2020-Aug-11 02:32 311 1 gusting 5 21.7
2020-Aug-11 02:16 334 1 gusting 6 21.1
2020-Aug-11 02:01 320 0 gusting 3 21.1
2020-Aug-11 01:47 326 1 gusting 4 21.1
2020-Aug-11 01:31 326 1 gusting 3 21.1
2020-Aug-11 01:17 323 1 gusting 5 21.1
2020-Aug-11 01:02 005 21.1
2020-Aug-11 00:46 005 21.7
2020-Aug-11 00:31 321 0 gusting 3 21.7
2020-Aug-11 00:16 340 0 gusting 3 21.7
2020-Aug-11 00:01 338 0 gusting 2 21.7
2020-Aug-10 23:47 024 0 gusting 3 21.7
2020-Aug-10 23:32 274 0 gusting 4 21.7
2020-Aug-10 23:16 113 0 gusting 2 21.1
2020-Aug-10 23:01 055 0 gusting 2 21.1
2020-Aug-10 22:47 012 21.7
2020-Aug-10 22:31 005 21.7
2020-Aug-10 22:16 018 21.7
2020-Aug-10 22:01 323 21.7
2020-Aug-10 21:45 360 1 gusting 3 21.7
2020-Aug-10 21:31 331 1 gusting 3 21.7
2020-Aug-10 21:17 005 0 gusting 4 21.7
2020-Aug-10 21:01 338 0 gusting 2 22.2
2020-Aug-10 20:45 027 1 gusting 5 22.2
2020-Aug-10 20:30 333 0 gusting 2 22.2
2020-Aug-10 20:15 337 22.8
2020-Aug-10 20:00 342 0 gusting 2 22.8
2020-Aug-10 19:45 333 22.8
2020-Aug-10 19:30 043 0 gusting 2 23.3
2020-Aug-10 19:15 019 0 gusting 3 23.3
2020-Aug-10 19:00 336 1 gusting 4 23.3
2020-Aug-10 18:30 343 0 gusting 4 23.3
2020-Aug-10 18:15 320 0 gusting 2 23.9
2020-Aug-10 18:00 355 1 gusting 5 23.9
2020-Aug-10 17:45 337 0 gusting 5 24.4
2020-Aug-10 17:30 341 0 gusting 4 24.4
2020-Aug-10 17:15 340 1 gusting 6 25.0
2020-Aug-10 17:00 015 2 gusting 6 25.0
2020-Aug-10 16:45 020 3 gusting 6 25.6
2020-Aug-10 16:30 035 4 gusting 11 25.6
2020-Aug-10 16:03 060 4 gusting 15 26.1
2020-Aug-10 15:46 025 6 gusting 15 26.1
2020-Aug-10 15:32 046 7 gusting 13 26.7
2020-Aug-10 15:18 019 6 gusting 13 26.7
2020-Aug-10 15:01 360 5 gusting 14 26.7
2020-Aug-10 14:46 313 4 gusting 10 27.2
2020-Aug-10 14:31 060 4 gusting 12 26.7
2020-Aug-10 14:16 016 6 gusting 13 26.7
2020-Aug-10 14:01 012 7 gusting 15 26.7
2020-Aug-10 13:46 039 9 gusting 20 26.7
2020-Aug-10 13:31 027 8 gusting 19 26.7
2020-Aug-10 13:16 005 8 gusting 14 27.2
2020-Aug-10 13:00 036 9 gusting 19 27.2
2020-Aug-10 12:45 063 7 gusting 18 27.2
2020-Aug-10 12:31 029 5 gusting 14 27.2
2020-Aug-10 12:16 005 7 gusting 18 27.2
2020-Aug-10 12:00 058 6 gusting 15 27.8
2020-Aug-10 11:46 096 8 gusting 20 27.2
2020-Aug-10 11:30 023 6 gusting 15 27.8
2020-Aug-10 11:15 005 8 gusting 20 27.8
2020-Aug-10 11:00 036 6 gusting 15 27.8
2020-Aug-10 10:46 076 6 gusting 19 27.2
2020-Aug-10 10:31 034 8 gusting 19 26.7
2020-Aug-10 10:15 053 7 gusting 18 27.2
2020-Aug-10 10:01 014 5 gusting 14 26.7
2020-Aug-10 09:45 042 5 gusting 15 26.7
2020-Aug-10 09:30 081 8 gusting 18 26.7
2020-Aug-10 09:15 282 7 gusting 13 27.2
2020-Aug-10 09:00 339 7 gusting 18 26.7
2020-Aug-10 08:45 046 6 gusting 18 27.2
2020-Aug-10 08:30 051 6 gusting 23 26.7
2020-Aug-10 08:15 360 8 gusting 19 26.7
2020-Aug-10 08:01 041 7 gusting 19 26.7
2020-Aug-10 07:45 037 8 gusting 20 26.1
2020-Aug-10 07:30 034 7 gusting 16 26.1
2020-Aug-10 07:16 098 6 gusting 19 26.1
2020-Aug-10 07:01 005 5 gusting 18 26.1
2020-Aug-10 06:46 120 5 gusting 12 25.6
2020-Aug-10 06:30 330 4 gusting 13 25.6
2020-Aug-10 06:17 024 4 gusting 13 25.0
2020-Aug-10 06:01 016 5 gusting 11 24.4
2020-Aug-10 05:45 030 3 gusting 9 24.4
2020-Aug-10 05:31 078 6 gusting 13 23.9
2020-Aug-10 05:15 073 3 gusting 10 23.3
2020-Aug-10 05:00 067 4 gusting 8 23.3
2020-Aug-10 04:45 026 3 gusting 11 22.8
2020-Aug-10 04:30 355 3 gusting 10 22.2
2020-Aug-10 04:15 355 3 gusting 11 22.2
2020-Aug-10 04:00 005 2 gusting 9 21.7
2020-Aug-10 03:45 355 2 gusting 8 21.7
2020-Aug-10 03:30 355 4 gusting 9 21.7
2020-Aug-10 03:15 347 4 gusting 10 22.2
2020-Aug-10 03:01 360 4 gusting 11 21.7
2020-Aug-10 02:47 350 3 gusting 9 21.7
2020-Aug-10 02:32 360 4 gusting 12 22.2
2020-Aug-10 02:16 054 4 gusting 10 21.7
2020-Aug-10 02:01 040 2 gusting 9 21.7
2020-Aug-10 01:47 049 2 gusting 7 22.2
2020-Aug-10 01:31 030 3 gusting 12 22.2
2020-Aug-10 01:16 069 4 gusting 11 22.2
2020-Aug-10 01:01 028 3 gusting 12 22.2
2020-Aug-10 00:46 030 3 gusting 13 22.8
2020-Aug-10 00:32 035 4 gusting 13 22.8
2020-Aug-10 00:16 057 5 gusting 9 22.8
2020-Aug-10 00:01 036 4 gusting 8 22.8
2020-Aug-09 23:46 355 4 gusting 12 22.8
2020-Aug-09 23:31 044 3 gusting 8 22.8
2020-Aug-09 23:16 355 3 gusting 9 23.3
2020-Aug-09 23:00 042 4 gusting 10 23.3
2020-Aug-09 22:45 022 4 gusting 13 23.3
2020-Aug-09 22:30 053 3 gusting 11 23.3
2020-Aug-09 22:15 005 5 gusting 11 23.3
2020-Aug-09 22:00 360 5 gusting 9 23.3
2020-Aug-09 21:45 034 5 gusting 11 23.3
2020-Aug-09 21:30 020 3 gusting 10 23.3
2020-Aug-09 21:15 036 3 gusting 11 23.3
2020-Aug-09 21:00 059 5 gusting 10 23.9
2020-Aug-09 20:45 029 6 gusting 11 23.9
2020-Aug-09 20:30 051 6 gusting 13 23.9
2020-Aug-09 20:15 036 5 gusting 13 24.4
2020-Aug-09 20:00 055 6 gusting 13 24.4
2020-Aug-09 19:45 360 6 gusting 16 24.4
2020-Aug-09 19:30 060 6 gusting 12 24.4
2020-Aug-09 19:15 038 3 gusting 12 24.4
2020-Aug-09 19:00 035 4 gusting 13 24.4
2020-Aug-09 18:45 048 6 gusting 14 24.4
2020-Aug-09 18:30 032 5 gusting 12 24.4
2020-Aug-09 18:15 048 5 gusting 13 24.4
2020-Aug-09 18:00 038 4 gusting 12 24.4
2020-Aug-09 17:45 026 4 gusting 9 24.4
2020-Aug-09 17:15 018 4 gusting 10 25.0
2020-Aug-09 17:02 005 4 gusting 11 25.0
2020-Aug-09 16:47 360 5 gusting 10 25.0
2020-Aug-09 16:32 340 3 gusting 13 25.0
2020-Aug-09 16:17 041 6 gusting 11 25.6
2020-Aug-09 16:02 017 5 gusting 10 25.6
2020-Aug-09 15:47 047 4 gusting 12 26.1
2020-Aug-09 15:31 355 5 gusting 12 26.1
2020-Aug-09 15:17 013 5 gusting 11 26.1
2020-Aug-09 15:02 355 6 gusting 13 26.1
2020-Aug-09 14:46 346 4 gusting 13 25.6
2020-Aug-09 14:32 005 6 gusting 12 25.6
2020-Aug-09 14:17 360 5 gusting 9 25.0
2020-Aug-09 14:02 059 5 gusting 15 25.0
2020-Aug-09 13:46 078 4 gusting 14 25.6
2020-Aug-09 13:31 046 5 gusting 13 25.0
2020-Aug-09 13:17 350 4 gusting 13 25.0
2020-Aug-09 13:01 038 4 gusting 8 24.4